Meteo pe oră la

Astăzi, 27 Ianuarie, Miercuri

Timp Temperatura Precipitaţii Vânt Presiune Umiditate
00:00 +20°C° 0.1 mm 1 m/s 676 mmHg 93%
01:00 +20°C° 0 mm 1 m/s 676 mmHg 93%
02:00 +20°C° 0 mm 1 m/s 676 mmHg 93%
03:00 +20°C° 0 mm 1 m/s 675 mmHg 94%
04:00 +19°C° 0 mm 1 m/s 675 mmHg 94%
05:00 +19°C° 0 mm 1 m/s 675 mmHg 94%
06:00 +19°C° 0 mm 1 m/s 675 mmHg 94%
07:00 +21°C° 0 mm 1 m/s 676 mmHg 85%
08:00 +23°C° 0 mm 2 m/s 676 mmHg 76%
09:00 +25°C° 0 mm 2 m/s 677 mmHg 67%
10:00 +27°C° 0.1 mm 2 m/s 677 mmHg 64%
11:00 +28°C° 0.1 mm 2 m/s 677 mmHg 60%
12:00 +29°C° 0.1 mm 3 m/s 677 mmHg 57%
13:00 +29°C° 0.8 mm 2 m/s 676 mmHg 60%
14:00 +29°C° 0.8 mm 2 m/s 676 mmHg 62%
15:00 +29°C° 0.8 mm 2 m/s 675 mmHg 65%
16:00 +28°C° 1.3 mm 2 m/s 675 mmHg 71%
17:00 +26°C° 1.3 mm 2 m/s 674 mmHg 77%
18:00 +24°C° 1.3 mm 2 m/s 674 mmHg 83%
19:00 +24°C° 0.6 mm 2 m/s 674 mmHg 85%
20:00 +23°C° 0.6 mm 2 m/s 675 mmHg 87%
21:00 +22°C° 0.6 mm 1 m/s 675 mmHg 90%
22:00 +22°C° 0 mm 1 m/s 675 mmHg 91%
23:00 +21°C° 0 mm 1 m/s 675 mmHg 91%

Mâine, 28 Ianuarie, Joi

Timp Temperatura Precipitaţii Vânt Presiune Umiditate
00:00 +21°C° 0 mm 1 m/s 675 mmHg 92%
01:00 +21°C° 0 mm 1 m/s 675 mmHg 93%
02:00 +21°C° 0 mm 1 m/s 674 mmHg 93%
03:00 +20°C° 0 mm 1 m/s 674 mmHg 94%
04:00 +20°C° 0 mm 1 m/s 674 mmHg 93%
05:00 +20°C° 0 mm 1 m/s 674 mmHg 93%
06:00 +21°C° 0 mm 1 m/s 674 mmHg 93%
07:00 +22°C° 0 mm 1 m/s 675 mmHg 86%
08:00 +23°C° 0 mm 2 m/s 676 mmHg 80%
09:00 +25°C° 0 mm 2 m/s 676 mmHg 73%
10:00 +25°C° 0.8 mm 2 m/s 676 mmHg 74%
11:00 +26°C° 0.8 mm 2 m/s 676 mmHg 75%
12:00 +26°C° 0.8 mm 2 m/s 676 mmHg 76%
13:00 +26°C° 1.6 mm 2 m/s 676 mmHg 80%
14:00 +25°C° 1.6 mm 2 m/s 675 mmHg 84%
15:00 +24°C° 1.6 mm 2 m/s 675 mmHg 88%
16:00 +24°C° 1.2 mm 1 m/s 674 mmHg 89%
17:00 +23°C° 1.2 mm 1 m/s 674 mmHg 90%
18:00 +20°C° 1.2 mm 0 m/s 674 mmHg 91%
19:00 +22°C° 1.2 mm 1 m/s 675 mmHg 92%
20:00 +21°C° 1.2 mm 1 m/s 675 mmHg 93%
21:00 +21°C° 1.2 mm 1 m/s 675 mmHg 94%
22:00 +21°C° 0.3 mm 1 m/s 675 mmHg 95%
23:00 +21°C° 0.3 mm 1 m/s 676 mmHg 95%

Poimâine, 29 Ianuarie, Vineri

Timp Temperatura Precipitaţii Vânt Presiune Umiditate
00:00 +21°C° 0.3 mm 1 m/s 676 mmHg 95%
01:00 +20°C° 0.1 mm 1 m/s 675 mmHg 95%
02:00 +20°C° 0.1 mm 1 m/s 675 mmHg 95%
03:00 +20°C° 0.1 mm 1 m/s 675 mmHg 95%
04:00 +20°C° 0 mm 1 m/s 675 mmHg 95%
05:00 +20°C° 0 mm 1 m/s 675 mmHg 95%
06:00 +20°C° 0 mm 1 m/s 675 mmHg 95%
07:00 +20°C° 0 mm 2 m/s 675 mmHg 91%
08:00 +21°C° 0 mm 2 m/s 676 mmHg 87%
09:00 +23°C° 0 mm 2 m/s 676 mmHg 83%
10:00 +24°C° 0.4 mm 3 m/s 676 mmHg 80%
11:00 +25°C° 0.4 mm 3 m/s 677 mmHg 76%
12:00 +26°C° 0.4 mm 3 m/s 677 mmHg 73%
13:00 +26°C° 0.7 mm 2 m/s 676 mmHg 75%
14:00 +26°C° 0.7 mm 2 m/s 676 mmHg 77%
15:00 +25°C° 0.7 mm 2 m/s 675 mmHg 80%
16:00 +24°C° 0.9 mm 2 m/s 675 mmHg 84%
17:00 +23°C° 0.9 mm 1 m/s 675 mmHg 88%
18:00 +22°C° 0.9 mm 1 m/s 675 mmHg 92%
19:00 +22°C° 0.6 mm 1 m/s 675 mmHg 93%
20:00 +22°C° 0.6 mm 1 m/s 675 mmHg 94%
21:00 +22°C° 0.6 mm 1 m/s 676 mmHg 94%
22:00 +21°C° 0.3 mm 1 m/s 676 mmHg 95%
23:00 +21°C° 0.3 mm 1 m/s 676 mmHg 95%

30 Ianuarie, Sâmbătă

Timp Temperatura Precipitaţii Vânt Presiune Umiditate
00:00 +21°C° 0.3 mm 1 m/s 676 mmHg 95%
01:00 +21°C° 0 mm 1 m/s 676 mmHg 95%
02:00 +19°C° 0 mm 0 m/s 676 mmHg 95%
03:00 +18°C° 0 mm 0 m/s 675 mmHg 95%
04:00 +18°C° 0 mm 0 m/s 676 mmHg 94%
05:00 +20°C° 0 mm 1 m/s 676 mmHg 94%
06:00 +20°C° 0 mm 1 m/s 676 mmHg 94%
07:00 +21°C° 0 mm 1 m/s 676 mmHg 89%
08:00 +23°C° 0 mm 1 m/s 677 mmHg 84%
09:00 +24°C° 0 mm 1 m/s 678 mmHg 80%
10:00 +25°C° 0.1 mm 2 m/s 678 mmHg 73%
11:00 +27°C° 0.1 mm 2 m/s 678 mmHg 66%
12:00 +29°C° 0.1 mm 3 m/s 678 mmHg 59%
13:00 +28°C° 1 mm 3 m/s 677 mmHg 64%
14:00 +28°C° 1 mm 2 m/s 677 mmHg 69%
15:00 +28°C° 1 mm 2 m/s 676 mmHg 74%
16:00 +27°C° 1 mm 2 m/s 676 mmHg 78%
17:00 +26°C° 1 mm 2 m/s 676 mmHg 82%
18:00 +24°C° 1 mm 2 m/s 676 mmHg 87%
19:00 +24°C° 0.2 mm 1 m/s 676 mmHg 88%
20:00 +23°C° 0.2 mm 1 m/s 677 mmHg 89%
21:00 +22°C° 0.2 mm 1 m/s 677 mmHg 90%
22:00 +21°C° 0 mm 1 m/s 677 mmHg 90%
23:00 +19°C° 0 mm 0 m/s 677 mmHg 90%

31 Ianuarie, Duminică

Timp Temperatura Precipitaţii Vânt Presiune Umiditate
00:00 +19°C° 0 mm 0 m/s 677 mmHg 91%
01:00 +19°C° 0 mm 0 m/s 677 mmHg 91%
02:00 +18°C° 0 mm 0 m/s 677 mmHg 91%
03:00 +18°C° 0 mm 0 m/s 676 mmHg 92%
04:00 +18°C° 0 mm 0 m/s 676 mmHg 92%
05:00 +18°C° 0 mm 0 m/s 676 mmHg 92%
06:00 +18°C° 0 mm 0 m/s 676 mmHg 92%
07:00 +22°C° 0 mm 1 m/s 677 mmHg 83%
08:00 +24°C° 0 mm 1 m/s 678 mmHg 73%
09:00 +26°C° 0 mm 2 m/s 679 mmHg 63%
10:00 +28°C° 0 mm 2 m/s 679 mmHg 56%
11:00 +30°C° 0 mm 2 m/s 679 mmHg 48%
12:00 +31°C° 0 mm 2 m/s 679 mmHg 41%
13:00 +31°C° 0 mm 2 m/s 678 mmHg 42%
14:00 +31°C° 0 mm 2 m/s 678 mmHg 43%
15:00 +31°C° 0 mm 2 m/s 677 mmHg 45%
16:00 +30°C° 0 mm 1 m/s 677 mmHg 50%
17:00 +30°C° 0 mm 1 m/s 677 mmHg 55%
18:00 +29°C° 0 mm 1 m/s 677 mmHg 59%
19:00 +27°C° 0.1 mm 1 m/s 677 mmHg 66%
20:00 +23°C° 0.1 mm 0 m/s 677 mmHg 72%
21:00 +22°C° 0.1 mm 0 m/s 677 mmHg 78%
22:00 +21°C° 0.1 mm 0 m/s 677 mmHg 81%
23:00 +21°C° 0.1 mm 0 m/s 677 mmHg 84%

1 Februarie, Luni

Timp Temperatura Precipitaţii Vânt Presiune Umiditate
00:00 +22°C° 0.1 mm 1 m/s 677 mmHg 88%
01:00 +20°C° 0 mm 0 m/s 677 mmHg 88%
02:00 +19°C° 0 mm 0 m/s 676 mmHg 89%
03:00 +19°C° 0 mm 0 m/s 676 mmHg 90%
04:00 +19°C° 0 mm 0 m/s 676 mmHg 91%
05:00 +19°C° 0 mm 0 m/s 676 mmHg 91%
06:00 +18°C° 0 mm 0 m/s 676 mmHg 91%
07:00 +21°C° 0 mm 0 m/s 677 mmHg 81%
08:00 +25°C° 0 mm 1 m/s 678 mmHg 71%
09:00 +28°C° 0 mm 1 m/s 679 mmHg 61%
10:00 +29°C° 0.1 mm 1 m/s 679 mmHg 55%
11:00 +30°C° 0.1 mm 1 m/s 678 mmHg 48%
12:00 +32°C° 0.1 mm 2 m/s 678 mmHg 42%
13:00 +31°C° 0.2 mm 2 m/s 678 mmHg 46%
14:00 +30°C° 0.2 mm 2 m/s 677 mmHg 50%
15:00 +30°C° 0.2 mm 2 m/s 677 mmHg 54%
16:00 +27°C° 0.9 mm 2 m/s 676 mmHg 66%
17:00 +25°C° 0.9 mm 2 m/s 676 mmHg 77%
18:00 +22°C° 0.9 mm 1 m/s 675 mmHg 89%
19:00 +22°C° 4.8 mm 1 m/s 676 mmHg 91%
20:00 +21°C° 4.8 mm 1 m/s 676 mmHg 93%
21:00 +21°C° 4.8 mm 1 m/s 677 mmHg 96%
22:00 +21°C° 1.3 mm 1 m/s 677 mmHg 96%
23:00 +19°C° 1.3 mm 0 m/s 677 mmHg 95%
Arată mai mult

Formular de consimțământ

Meteoprog și furnizorii noștri de servicii pot stoca și accesa date personale, precum cookies, identificatori de dispozitiv sau alte tehnologii similare pe dispozitivul dumneavoastră și procesa astfel de date pentru a personaliza conținutul și reclamele, dar și pentru a oferi caracteristici de social media și pentru a analiza traficul.

  • Stocarea și/sau accesarea informațiilor pe dispozitivul dumneavoastră

    Cookies, identificatori de dispozitiv sau alte informații pot fi stocate sau accesate pe dispozitiv în scopurile indicate mai sus.

  • Reclame și conținut personalizat, evaluarea reclamelor și a conținutului, informații despre audiențe și dezvoltarea produselor

    Reclamele și conținutul pot fi personalizate pe baza unui profil. Pot fi adăugate date suplimentare pentru a personaliza mai bine reclamele și conținutul. Performanța reclamelor și conținutului poate fi măsurată. Pot fi obținute informații despre utilizatorii care au văzut reclamele și conținutul. Aceste date pot fi utilizate pentru a dezvolta sau îmbunătăți experiența utilizatorilor, sistemele și software-ul.

Dând clic pe ‘Sunt de acord’, permiteți utilizarea cookie-urilor menționate, a identificatorilor de dispozitiv, balizelor web sau altor tehnologii similare. Setările pot fi modificate din browser-ul dispozitivului dumneavoastră.

În anumite scopuri, interesele legitime pot prima asupra consimțământului. Puteți citi mai multe informații în acest sens în Politica privind Confidențialitatea Datelor și Cookie.